Home > Weather > Paramus > Past weeks

Flag for USA Past Weather in Paramus, New Jersey, USA — Yesterday and Last 2 Weeks

Now
78 °F

Sunny.


Feels Like: 80 °F
Forecast: 69 / 73 °F
Wind: 6 mph from Southeast

Location: Teterboro Airport

Current Time: May 29, 2016 at 9:08:44 PM

Latest Report: May 29, 2016 at 7:51 PM


Visibility: 10 mi

Pressure: 30.03 "Hg

Humidity: 62%

Dew Point: 64 °F

Location of ParamusLocation

Past Weather in Paramus — Graph

°F

Paramus Temperature Yesterday

Maximum temperature yesterday: 92 °F (at 3:51 PM)
Minimum temperature yesterday: 71 °F (at 5:51 AM)
Average temperature yesterday: 81 °F

High & Low Weather Summary for the Past Weeks

 TemperatureHumidityPressure
High92 °F (May 26, 2:51 PM)87% (May 24, 5:51 AM)30.25 "Hg (May 24, 5:51 AM)
Low41 °F (May 16, 3:51 AM)17% (May 25, 2:51 PM)29.61 "Hg (May 14, 7:51 PM)
Average66 °F50%30.01 "Hg
* Reported May 14 7:51 PM — May 29 7:51 PM, Paramus, Weather by CustomWeather, © 2016

Note: Actual official high and low records may vary slightly from our data, if they occured in-between our weather recording intervals... More about our weather records

Advertising

Paramus Weather History for the Previous 24 Hours

Scroll right to see more
 ConditionsComfort  
Time TempWeatherWind HumidityBarometerVisibility
7:51 PM
Sun, May 29
78 °FSunny.6 mph62%30.03 "Hg10 mi
6:51 PM80 °FSunny.8 mph56%30.03 "Hg10 mi
5:51 PM81 °FSunny.10 mph53%30.04 "Hg10 mi
4:51 PM82 °FSunny.12 mph46%30.05 "Hg10 mi
3:51 PM85 °FSunny.12 mph32%30.05 "Hg10 mi
2:51 PM87 °FSunny.12 mph39%30.07 "Hg10 mi
1:51 PM88 °FSunny.12 mph38%30.08 "Hg10 mi
12:51 PM88 °FSunny.14 mph38%30.09 "Hg10 mi
11:51 AM85 °FSunny.9 mph40%30.10 "Hg10 mi
10:51 AM84 °FSunny.6 mph43%30.11 "Hg10 mi
9:51 AM81 °FSunny.5 mph47%30.12 "Hg10 mi
8:51 AM77 °FSunny.5 mph50%30.12 "Hg10 mi
7:51 AM75 °FSunny.6 mph52%30.13 "Hg10 mi
6:51 AM72 °FSunny.6 mph55%30.13 "Hg10 mi
5:51 AM70 °FClear.No wind57%30.12 "Hg10 mi
4:51 AM70 °FClear.6 mph57%30.11 "Hg10 mi
3:51 AM72 °FClear.3 mph57%30.10 "Hg10 mi
2:51 AM74 °FClear.No wind57%30.11 "Hg10 mi
1:51 AM76 °FClear.5 mph58%30.11 "Hg10 mi
12:51 AM77 °FClear.6 mph58%30.11 "Hg10 mi
11:51 PM
Sat, May 28
79 °FClear.7 mph56%30.10 "Hg10 mi
10:51 PM80 °FPassing clouds.6 mph58%30.09 "Hg10 mi
9:51 PM82 °FClear.3 mph55%30.09 "Hg10 mi
Weather by CustomWeather, © 2016

See weather overviewHow to use our weather pages